Midland, MI

7:29 PM EDT on June 22, 2017 (GMT -0400)
Barstow

Weather History for KIKW - March, 2013

Change the Weather History Date:

Monday, March 11, 2013

  Actual Average (KMBS) Record (KMBS)
Temperature  
Mean Temperature 42 °F -  
Max Temperature 49 °F 34 °F 64 °F (2012)
Min Temperature 36 °F 20 °F 7 °F (1998)
Degree Days  
Heating Degree Days 22    
Moisture  
Dew Point 43 °F    
Average Humidity 93    
Maximum Humidity 99    
Minimum Humidity 84    
Precipitation  
Precipitation 0.25 in - - ()
Sea Level Pressure  
Sea Level Pressure 29.58 in    
Wind  
Wind Speed 5 mph (South)    
Max Wind Speed 17 mph    
Max Gust Speed 28 mph    
Visibility 8 miles    
Events Rain    
Averages and records for this station are not official NWS values.
T = Trace of Precipitation, MM = Missing Value Source: NWS Daily Summary

Daily Weather History Graph

Daily Weather History Graph

Search for Another Location

Airport or City:

Trip Planner

Search our weather history database for the weather conditions in past years. The results will help you decide how hot, cold, wet, or windy it might be!

Date:

Astronomy

Mar. 11, 2013 Rise Set
Actual Time 7:55 AM EDT 7:38 PM EDT
Civil Twilight 7:27 AM EDT 8:07 PM EDT
Nautical Twilight 6:54 AM EDT 8:40 PM EDT
Astronomical Twilight 6:20 AM EDT 9:14 PM EDT
Moon 7:28 AM EDT (3/11) 7:51 PM EDT (3/11)
Length of Visible Light 12h 39m
Length of Day
11h 42m
Waning Crescent, 0% of the Moon is Illuminated
Mar 11
Waning Crescent
Mar 11
New
Mar 19
First Quarter
Mar 27
Full
Apr 3
Last Quarter

Hourly Weather History & Observations

Time (EDT) Temp. Windchill Dew Point Humidity Pressure Visibility Wind Dir Wind Speed Gust Speed Precip Events Conditions
12:14 AM 39.2 °F - 38.8 °F 99% 29.77 in 1.0 mi Calm Calm - 0.01 in Rain Light Rain
12:34 AM 40.8 °F 37.8 °F 40.5 °F 99% 29.75 in 3.0 mi East 4.6 mph - 0.02 in Rain Light Rain
1:14 AM 43.5 °F 38.9 °F 43.2 °F 99% 29.73 in 10.0 mi East 8.1 mph - N/A   Overcast
1:34 AM 44.1 °F 39.5 °F 41.5 °F 91% 29.72 in 10.0 mi East 8.1 mph - N/A   Overcast
1:53 AM 42.3 °F 37.3 °F 40.5 °F 93% 29.71 in 10.0 mi East 8.1 mph - N/A   Overcast
2:14 AM 42.6 °F 39.9 °F 40.3 °F 91% 29.70 in 10.0 mi East 4.6 mph - N/A   Overcast
2:34 AM 41.2 °F 37.3 °F 39.7 °F 95% 29.69 in 7.0 mi East 5.8 mph - N/A   Overcast
2:53 AM 41.9 °F 40.0 °F 39.6 °F 91% 29.69 in 10.0 mi East 3.5 mph - N/A   Overcast
3:14 AM 43.2 °F - 40.5 °F 90% 29.68 in 10.0 mi Calm Calm - N/A   Overcast
3:34 AM 41.2 °F 38.2 °F 39.4 °F 93% 29.67 in 10.0 mi East 4.6 mph - N/A   Overcast
3:53 AM 40.6 °F 38.6 °F 39.7 °F 97% 29.66 in 7.0 mi East 3.5 mph - N/A   Overcast
4:14 AM 41.0 °F - 39.2 °F 93% 29.66 in 10.0 mi Calm Calm - N/A Rain Light Rain
4:34 AM 45.5 °F 44.2 °F 41.9 °F 87% 29.64 in 10.0 mi South 3.5 mph - N/A Rain Rain
4:53 AM 46.8 °F - 43.3 °F 88% 29.64 in 10.0 mi SSE 4.6 mph - N/A   Overcast
5:14 AM 47.3 °F - 43.3 °F 86% 29.64 in 10.0 mi Calm Calm - N/A   Overcast
5:34 AM 47.7 °F - 43.9 °F 87% 29.64 in 10.0 mi South 3.5 mph - N/A   Overcast
5:53 AM 47.3 °F - 43.7 °F 87% 29.63 in 10.0 mi South 3.5 mph - N/A   Overcast
6:14 AM 48.2 °F - 43.7 °F 84% 29.64 in 10.0 mi South 4.6 mph - N/A   Overcast
6:34 AM 47.3 °F - 43.5 °F 87% 29.62 in 10.0 mi Calm Calm - N/A   Overcast
6:53 AM 47.3 °F - 43.0 °F 85% 29.62 in 10.0 mi South 5.8 mph - N/A   Overcast
7:14 AM 47.1 °F - 42.8 °F 85% 29.63 in 10.0 mi South 5.8 mph - N/A Rain Light Rain
7:34 AM 47.3 °F - 42.8 °F 84% 29.63 in 10.0 mi South 9.2 mph - N/A   Overcast
7:53 AM 47.3 °F - 43.0 °F 85% 29.62 in 10.0 mi SSW 6.9 mph - N/A   Drizzle
8:14 AM 46.8 °F - 44.1 °F 90% 29.62 in 7.0 mi South 4.6 mph - 0.01 in Rain Light Rain
8:26 AM 46.2 °F 43.3 °F 44.4 °F 93% 29.64 in 7.0 mi SSW 5.8 mph - 0.01 in Rain Light Rain
9:08 AM 45.7 °F 42.7 °F 44.6 °F 96% 29.64 in 5.0 mi South 5.8 mph - N/A Rain Light Rain
9:14 AM 45.9 °F 43.6 °F 44.8 °F 96% 29.64 in 7.0 mi SSW 4.6 mph - N/A Rain Light Rain
9:34 AM 45.5 °F 43.2 °F 44.2 °F 95% 29.64 in 7.0 mi South 4.6 mph - 0.01 in Rain Light Rain
9:54 AM 45.5 °F 42.5 °F 44.4 °F 96% 29.64 in 7.0 mi South 5.8 mph - 0.01 in Rain Rain
10:14 AM 45.5 °F 44.2 °F 44.6 °F 97% 29.64 in 7.0 mi South 3.5 mph - N/A Rain Light Rain
10:34 AM 45.7 °F 44.4 °F 44.8 °F 97% 29.62 in 5.0 mi South 3.5 mph - N/A Rain Light Rain
10:54 AM 46.0 °F - 45.1 °F 97% 29.62 in 7.0 mi Calm Calm - N/A   Overcast
11:14 AM 46.4 °F 45.2 °F 45.5 °F 97% 29.60 in 7.0 mi SSW 3.5 mph - N/A   Overcast
11:34 AM 46.4 °F 43.5 °F 45.5 °F 97% 29.61 in 7.0 mi SSW 5.8 mph - N/A   Overcast
11:54 AM 46.4 °F 45.2 °F 45.7 °F 97% 29.59 in 7.0 mi South 3.5 mph - N/A   Overcast
12:14 PM 47.3 °F - 46.6 °F 97% 29.59 in 7.0 mi SSE 4.6 mph - N/A   Overcast
12:33 PM 47.8 °F - 46.9 °F 97% 29.57 in 7.0 mi SSE 6.9 mph - N/A   Light Drizzle
12:54 PM 48.4 °F - 47.5 °F 97% 29.57 in 7.0 mi South 6.9 mph - N/A   Overcast
1:14 PM 47.7 °F - 46.8 °F 97% 29.56 in 7.0 mi South 3.5 mph - N/A   Overcast
1:34 PM 47.7 °F - 46.8 °F 97% 29.56 in 7.0 mi South 4.6 mph - N/A   Light Drizzle
1:54 PM 47.7 °F - 46.9 °F 97% 29.54 in 5.0 mi SSE 3.5 mph - N/A   Light Drizzle
2:14 PM 47.8 °F - 47.3 °F 98% 29.53 in 4.0 mi Calm Calm - N/A   Overcast
2:34 PM 47.7 °F - 47.3 °F 99% 29.52 in 2.5 mi Calm Calm - N/A   Drizzle
2:54 PM 47.8 °F - 47.7 °F 99% 29.49 in 0.5 mi Calm Calm - N/A   Drizzle
3:14 PM 49.1 °F - 48.6 °F 98% 29.47 in 3.0 mi East 4.6 mph - N/A   Overcast
3:34 PM 48.9 °F - 48.6 °F 99% 29.47 in 3.0 mi SSE 4.6 mph - N/A   Overcast
3:54 PM 48.4 °F - 48.2 °F 99% 29.46 in 3.0 mi Calm Calm - N/A Rain Rain
4:14 PM 48.7 °F - 48.4 °F 99% 29.44 in 2.5 mi SE 4.6 mph - 0.03 in Rain Rain
4:34 PM 48.2 °F - 47.7 °F 98% 29.44 in 4.0 mi SSE 6.9 mph - 0.08 in Rain Rain
4:54 PM 48.2 °F - 47.7 °F 98% 29.44 in 4.0 mi SSE 6.9 mph - 0.13 in Rain Rain
5:14 PM 48.2 °F - 47.7 °F 98% 29.44 in 5.0 mi South 8.1 mph - 0.04 in Rain Rain
5:34 PM 48.2 °F - 47.7 °F 98% 29.44 in 5.0 mi SSW 9.2 mph - 0.09 in Rain Rain
5:54 PM 47.5 °F - 46.4 °F 96% 29.44 in 10.0 mi SSW 9.2 mph - 0.10 in Rain Light Rain
6:14 PM 47.3 °F - 46.0 °F 95% 29.43 in 10.0 mi SW 8.1 mph - N/A Rain Light Rain
6:34 PM 45.7 °F 38.8 °F 43.0 °F 90% 29.47 in 10.0 mi SW 16.1 mph 19.6 mph N/A   Overcast
7:14 PM 43.0 °F 36.8 °F 40.3 °F 90% 29.48 in 10.0 mi WSW 11.5 mph 16.1 mph N/A Rain Light Rain
7:34 PM 42.6 °F 35.9 °F 40.1 °F 91% 29.49 in 10.0 mi WSW 12.7 mph - N/A   Overcast
7:54 PM 42.1 °F 35.2 °F 39.4 °F 90% 29.49 in 10.0 mi WSW 12.7 mph 19.6 mph N/A   Overcast
8:14 PM 41.2 °F 35.0 °F 38.1 °F 89% 29.49 in 10.0 mi WSW 10.4 mph 18.4 mph N/A   Overcast
8:34 PM 40.6 °F 34.3 °F 37.2 °F 88% 29.50 in 10.0 mi SW 10.4 mph 20.7 mph N/A   Overcast
8:54 PM 39.7 °F 32.3 °F 36.5 °F 88% 29.51 in 10.0 mi SW 12.7 mph 27.6 mph N/A   Overcast
9:14 PM 39.0 °F 31.8 °F 35.6 °F 88% 29.52 in 10.0 mi SW 11.5 mph 18.4 mph N/A   Overcast
9:34 PM 38.5 °F 30.7 °F 34.2 °F 84% 29.53 in 10.0 mi SW 12.7 mph 27.6 mph N/A   Overcast
9:54 PM 38.3 °F 30.9 °F 34.3 °F 86% 29.54 in 10.0 mi SW 11.5 mph 23.0 mph N/A   Overcast
10:14 PM 37.9 °F 28.5 °F 34.0 °F 86% 29.54 in 10.0 mi SW 17.3 mph 23.0 mph N/A   Overcast
10:34 PM 37.6 °F 29.1 °F 33.8 °F 86% 29.55 in 10.0 mi SW 13.8 mph 18.4 mph N/A   Overcast
10:54 PM 37.6 °F 29.1 °F 33.8 °F 86% 29.56 in 10.0 mi SW 13.8 mph 20.7 mph N/A   Overcast
11:14 PM 37.4 °F 28.9 °F 33.8 °F 87% 29.57 in 10.0 mi SW 13.8 mph 20.7 mph N/A   Overcast
11:34 PM 36.9 °F 27.8 °F 34.0 °F 89% 29.57 in 10.0 mi SW 15.0 mph 19.6 mph N/A   Overcast
11:55 PM 36.7 °F 28.0 °F 34.3 °F 91% 29.58 in 10.0 mi SW 13.8 mph 18.4 mph N/A   Overcast